Time,TemperatureF,DewpointF,PressureIn,WindDirection,WindDirectionDegrees,WindSpeedMPH,WindSpeedGustMPH,Humidity,HourlyPrecipIn,Conditions,Clouds,dailyrainin,SoftwareType,DateUTC
2013-01-30 00:00:00,67.2,64.5,30.07,SSW,193,2.0,7.0,91,0.00,,---,0.00,VWS V14.01,2013-01-30 05:00:00,
2013-01-30 00:01:00,67.2,64.5,30.07,South,190,3.0,3.0,91,0.00,,---,0.00,VWS V14.01,2013-01-30 05:01:00,
2013-01-30 00:04:00,67.2,64.5,30.07,SSE,163,5.0,7.0,91,0.00,,---,0.00,VWS V14.01,2013-01-30 05:04:00,
2013-01-30 00:07:00,67.2,64.5,30.07,SE,136,3.0,8.0,91,0.00,,---,0.00,VWS V14.01,2013-01-30 05:07:00,
2013-01-30 00:10:00,67.3,64.6,30.07,South,180,4.0,8.0,91,0.00,,---,0.00,VWS V14.01,2013-01-30 05:10:00,
2013-01-30 00:13:00,67.4,64.7,30.07,South,175,3.0,9.0,91,0.00,,---,0.00,VWS V14.01,2013-01-30 05:13:00,
2013-01-30 00:15:00,67.4,64.7,30.07,SSE,160,5.0,9.0,91,0.00,,---,0.00,VWS V14.01,2013-01-30 05:15:00,
2013-01-30 00:16:00,67.4,64.7,30.07,South,191,3.0,6.0,91,0.00,,---,0.00,VWS V14.01,2013-01-30 05:16:00,
2013-01-30 00:19:00,67.4,64.7,30.07,SSE,165,2.0,6.0,91,0.00,,---,0.00,VWS V14.01,2013-01-30 05:19:00,
2013-01-30 00:22:00,67.3,64.6,30.07,SSE,165,6.0,6.0,91,0.00,,---,0.00,VWS V14.01,2013-01-30 05:22:00,
2013-01-30 00:25:00,67.4,64.7,30.07,SSE,161,4.0,11.0,91,0.00,,---,0.00,VWS V14.01,2013-01-30 05:25:00,
2013-01-30 00:28:00,67.3,64.6,30.07,SSW,196,4.0,11.0,91,0.00,,---,0.00,VWS V14.01,2013-01-30 05:28:00,
2013-01-30 00:30:00,67.3,64.6,30.06,SW,219,2.0,11.0,91,0.00,,---,0.00,VWS V14.01,2013-01-30 05:30:00,
2013-01-30 00:31:00,67.3,64.6,30.06,South,188,4.0,5.0,91,0.00,,---,0.00,VWS V14.01,2013-01-30 05:31:00,
2013-01-30 00:34:00,67.3,64.6,30.06,SSE,149,3.0,6.0,91,0.00,,---,0.00,VWS V14.01,2013-01-30 05:34:00,
2013-01-30 00:37:00,67.3,64.6,30.06,SE,138,2.0,6.0,91,0.00,,---,0.00,VWS V14.01,2013-01-30 05:37:00,
2013-01-30 00:40:00,67.3,64.6,30.06,South,178,1.0,7.0,91,0.00,,---,0.00,VWS V14.01,2013-01-30 05:40:00,
2013-01-30 00:43:00,67.2,64.5,30.06,SSE,166,6.0,7.0,91,0.00,,---,0.00,VWS V14.01,2013-01-30 05:43:00,
2013-01-30 00:45:00,67.2,64.5,30.07,SSW,203,4.0,8.0,91,0.00,,---,0.00,VWS V14.01,2013-01-30 05:45:00,
2013-01-30 00:46:00,67.2,64.5,30.07,SSE,157,4.0,6.0,91,0.00,,---,0.00,VWS V14.01,2013-01-30 05:46:00,
2013-01-30 00:49:00,67.2,64.5,30.07,SW,225,3.0,6.0,91,0.00,,---,0.00,VWS V14.01,2013-01-30 05:49:00,
2013-01-30 00:52:00,67.1,64.4,30.07,East,86,0.0,6.0,91,0.00,,---,0.00,VWS V14.01,2013-01-30 05:52:00,
2013-01-30 00:55:00,67.0,64.3,30.07,SSW,213,4.0,6.0,91,0.00,,---,0.00,VWS V14.01,2013-01-30 05:55:00,
2013-01-30 00:58:00,67.0,64.3,30.07,SW,220,4.0,10.0,91,0.00,,---,0.00,VWS V14.01,2013-01-30 05:58:00,
2013-01-30 01:00:00,66.9,64.2,30.07,SW,220,2.0,10.0,91,0.00,,---,0.00,VWS V14.01,2013-01-30 06:00:00,
2013-01-30 01:01:00,66.9,64.2,30.07,SW,220,3.0,5.0,91,0.00,,---,0.00,VWS V14.01,2013-01-30 06:01:00,
2013-01-30 01:04:00,66.8,64.1,30.07,SE,145,3.0,6.0,91,0.00,,---,0.00,VWS V14.01,2013-01-30 06:04:00,
2013-01-30 01:08:00,66.8,64.1,30.07,SSW,213,3.0,6.0,91,0.00,,---,0.00,VWS V14.01,2013-01-30 06:08:00,
2013-01-30 01:10:00,66.7,64.0,30.07,SSW,213,2.0,6.0,91,0.00,,---,0.00,VWS V14.01,2013-01-30 06:10:00,
2013-01-30 01:13:00,66.7,64.0,30.07,SSW,211,3.0,6.0,91,0.00,,---,0.00,VWS V14.01,2013-01-30 06:13:00,
2013-01-30 01:15:00,66.7,64.0,30.06,SSE,163,3.0,6.0,91,0.00,,---,0.00,VWS V14.01,2013-01-30 06:15:00,
2013-01-30 01:17:00,66.6,63.9,30.06,South,177,3.0,4.0,91,0.00,,---,0.00,VWS V14.01,2013-01-30 06:17:00,
2013-01-30 01:20:00,66.6,64.2,30.06,South,182,3.0,4.0,92,0.00,,---,0.00,VWS V14.01,2013-01-30 06:20:00,
2013-01-30 01:23:00,66.5,64.1,30.06,SW,222,3.0,5.0,92,0.00,,---,0.00,VWS V14.01,2013-01-30 06:23:00,
2013-01-30 01:26:00,66.5,64.1,30.06,SW,217,5.0,5.0,92,0.00,,---,0.00,VWS V14.01,2013-01-30 06:26:00,
2013-01-30 01:29:00,66.5,64.1,30.06,SW,219,1.0,7.0,92,0.00,,---,0.00,VWS V14.01,2013-01-30 06:29:00,
2013-01-30 01:30:00,66.5,64.1,30.06,SW,216,2.0,7.0,92,0.00,,---,0.00,VWS V14.01,2013-01-30 06:30:00,
2013-01-30 01:32:00,66.5,64.1,30.06,SSW,200,3.0,5.0,92,0.00,,---,0.00,VWS V14.01,2013-01-30 06:32:00,
2013-01-30 01:35:00,66.5,64.1,30.06,South,188,2.0,5.0,92,0.00,,---,0.00,VWS V14.01,2013-01-30 06:35:00,
2013-01-30 01:38:00,66.5,64.1,30.06,SSE,161,3.0,7.0,92,0.00,,---,0.00,VWS V14.01,2013-01-30 06:38:00,
2013-01-30 01:41:00,66.5,64.1,30.06,South,172,3.0,7.0,92,0.00,,---,0.00,VWS V14.01,2013-01-30 06:41:00,
2013-01-30 01:44:00,66.5,64.1,30.06,South,190,2.0,7.0,92,0.00,,---,0.00,VWS V14.01,2013-01-30 06:44:00,
2013-01-30 01:45:00,66.5,64.1,30.05,South,182,4.0,7.0,92,0.00,,---,0.00,VWS V14.01,2013-01-30 06:45:00,
2013-01-30 01:47:00,66.5,64.1,30.05,SSE,155,2.0,5.0,92,0.00,,---,0.00,VWS V14.01,2013-01-30 06:47:00,
2013-01-30 01:50:00,66.4,64.0,30.05,SSE,152,2.0,7.0,92,0.00,,---,0.00,VWS V14.01,2013-01-30 06:50:00,
2013-01-30 01:53:00,66.4,64.0,30.05,SSW,203,4.0,9.0,92,0.00,,---,0.00,VWS V14.01,2013-01-30 06:53:00,
2013-01-30 01:56:00,66.4,64.0,30.05,SSW,205,2.0,9.0,92,0.00,,---,0.00,VWS V14.01,2013-01-30 06:56:00,
2013-01-30 01:59:00,66.3,63.9,30.05,SSW,209,3.0,9.0,92,0.00,,---,0.00,VWS V14.01,2013-01-30 06:59:00,
2013-01-30 02:00:00,66.3,63.9,30.04,SSW,207,2.0,9.0,92,0.00,,---,0.00,VWS V14.01,2013-01-30 07:00:00,
2013-01-30 02:02:00,66.3,63.9,30.04,SSE,165,4.0,6.0,92,0.00,,---,0.00,VWS V14.01,2013-01-30 07:02:00,
2013-01-30 02:05:00,66.2,63.8,30.04,SSE,164,2.0,6.0,92,0.00,,---,0.00,VWS V14.01,2013-01-30 07:05:00,
2013-01-30 02:08:00,66.1,63.7,30.04,SW,223,3.0,6.0,92,0.00,,---,0.00,VWS V14.01,2013-01-30 07:08:00,
2013-01-30 02:11:00,66.1,64.0,30.04,South,173,2.0,6.0,93,0.00,,---,0.00,VWS V14.01,2013-01-30 07:11:00,
2013-01-30 02:14:00,66.0,63.9,30.04,SSW,205,4.0,6.0,93,0.00,,---,0.00,VWS V14.01,2013-01-30 07:14:00,
2013-01-30 02:15:00,66.0,63.9,30.03,SSW,212,4.0,6.0,93,0.00,,---,0.00,VWS V14.01,2013-01-30 07:15:00,
2013-01-30 02:17:00,66.0,63.9,30.03,SSW,198,2.0,5.0,93,0.00,,---,0.00,VWS V14.01,2013-01-30 07:17:00,
2013-01-30 02:20:00,65.9,63.8,30.03,SSW,198,4.0,5.0,93,0.00,,---,0.00,VWS V14.01,2013-01-30 07:20:00,
2013-01-30 02:23:00,65.9,63.8,30.03,SW,225,4.0,6.0,93,0.00,,---,0.00,VWS V14.01,2013-01-30 07:23:00,
2013-01-30 02:26:00,65.9,63.8,30.03,SW,221,1.0,6.0,93,0.00,,---,0.00,VWS V14.01,2013-01-30 07:26:00,
2013-01-30 02:29:00,65.9,63.8,30.03,SSE,159,1.0,6.0,93,0.00,,---,0.00,VWS V14.01,2013-01-30 07:29:00,
2013-01-30 02:30:00,65.9,63.8,30.03,SSE,159,0.0,6.0,93,0.00,,---,0.00,VWS V14.01,2013-01-30 07:30:00,
2013-01-30 02:32:00,65.9,63.8,30.03,SSW,212,2.0,4.0,93,0.00,,---,0.00,VWS V14.01,2013-01-30 07:32:00,
2013-01-30 02:35:00,65.9,63.8,30.03,SW,215,4.0,4.0,93,0.00,,---,0.00,VWS V14.01,2013-01-30 07:35:00,
2013-01-30 02:38:00,65.9,63.8,30.03,SW,219,3.0,6.0,93,0.00,,---,0.00,VWS V14.01,2013-01-30 07:38:00,
2013-01-30 02:41:00,65.9,63.8,30.03,South,173,3.0,6.0,93,0.00,,---,0.00,VWS V14.01,2013-01-30 07:41:00,
2013-01-30 02:44:00,65.8,63.7,30.03,SSW,209,6.0,6.0,93,0.00,,---,0.00,VWS V14.01,2013-01-30 07:44:00,
2013-01-30 02:45:00,65.8,63.7,30.03,SW,221,3.0,6.0,93,0.00,,---,0.00,VWS V14.01,2013-01-30 07:45:00,
2013-01-30 02:47:00,65.8,64.0,30.03,SSE,167,4.0,5.0,94,0.00,,---,0.00,VWS V14.01,2013-01-30 07:47:00,
2013-01-30 02:50:00,65.8,64.0,30.03,SSW,192,2.0,5.0,94,0.00,,---,0.00,VWS V14.01,2013-01-30 07:50:00,
2013-01-30 02:53:00,65.8,64.0,30.03,SSW,200,0.0,5.0,94,0.00,,---,0.00,VWS V14.01,2013-01-30 07:53:00,
2013-01-30 02:56:00,65.8,64.0,30.03,SSW,199,2.0,5.0,94,0.00,,---,0.00,VWS V14.01,2013-01-30 07:56:00,
2013-01-30 02:59:00,65.7,63.9,30.03,South,191,3.0,5.0,94,0.00,,---,0.00,VWS V14.01,2013-01-30 07:59:00,
2013-01-30 03:00:00,65.7,63.9,30.03,SSW,201,4.0,5.0,94,0.00,,---,0.00,VWS V14.01,2013-01-30 08:00:00,
2013-01-30 03:02:00,65.7,63.9,30.03,SW,217,2.0,6.0,94,0.00,,---,0.00,VWS V14.01,2013-01-30 08:02:00,
2013-01-30 03:05:00,65.7,63.9,30.03,SW,223,2.0,6.0,94,0.00,,---,0.00,VWS V14.01,2013-01-30 08:05:00,
2013-01-30 03:08:00,65.6,63.8,30.03,South,175,2.0,6.0,94,0.00,,---,0.00,VWS V14.01,2013-01-30 08:08:00,
2013-01-30 03:11:00,65.7,63.9,30.03,SW,215,3.0,7.0,94,0.00,,---,0.00,VWS V14.01,2013-01-30 08:11:00,
2013-01-30 03:14:00,65.6,63.8,30.01,SE,139,3.0,7.0,94,0.00,,---,0.00,VWS V14.01,2013-01-30 08:14:00,
2013-01-30 03:15:00,65.6,63.8,30.01,SSW,212,2.0,7.0,94,0.00,,---,0.00,VWS V14.01,2013-01-30 08:15:00,
2013-01-30 03:17:00,65.6,63.8,30.01,SSW,212,4.0,4.0,94,0.00,,---,0.00,VWS V14.01,2013-01-30 08:17:00,
2013-01-30 03:20:00,65.6,63.8,30.01,SSW,212,1.0,4.0,94,0.00,,---,0.00,VWS V14.01,2013-01-30 08:20:00,
2013-01-30 03:23:00,65.6,63.8,30.01,SW,219,1.0,6.0,94,0.00,,---,0.00,VWS V14.01,2013-01-30 08:23:00,
2013-01-30 03:26:00,65.6,63.8,30.01,SW,219,1.0,6.0,94,0.00,,---,0.00,VWS V14.01,2013-01-30 08:26:00,
2013-01-30 03:29:00,65.6,63.8,30.02,SW,219,3.0,6.0,94,0.00,,---,0.00,VWS V14.01,2013-01-30 08:29:00,
2013-01-30 03:30:00,65.6,63.8,30.02,SW,219,2.0,6.0,94,0.00,,---,0.00,VWS V14.01,2013-01-30 08:30:00,
2013-01-30 03:32:00,65.5,63.7,30.02,SW,219,2.0,5.0,94,0.00,,---,0.00,VWS V14.01,2013-01-30 08:32:00,
2013-01-30 03:35:00,65.5,63.7,30.02,SW,219,3.0,5.0,94,0.00,,---,0.00,VWS V14.01,2013-01-30 08:35:00,
2013-01-30 03:38:00,65.5,63.7,30.02,SW,221,2.0,5.0,94,0.00,,---,0.00,VWS V14.01,2013-01-30 08:38:00,
2013-01-30 03:41:00,65.4,63.6,30.02,South,172,3.0,5.0,94,0.00,,---,0.00,VWS V14.01,2013-01-30 08:41:00,
2013-01-30 03:44:00,65.4,63.6,30.01,SW,217,1.0,5.0,94,0.00,,---,0.00,VWS V14.01,2013-01-30 08:44:00,
2013-01-30 03:45:00,65.4,63.6,30.01,WSW,250,4.0,5.0,94,0.00,,---,0.00,VWS V14.01,2013-01-30 08:45:00,
2013-01-30 03:47:00,65.4,63.6,30.01,South,184,3.0,5.0,94,0.00,,---,0.00,VWS V14.01,2013-01-30 08:47:00,
2013-01-30 03:50:00,65.3,63.5,30.01,SW,221,3.0,7.0,94,0.00,,---,0.00,VWS V14.01,2013-01-30 08:50:00,
2013-01-30 03:53:00,65.3,63.5,30.01,SW,224,2.0,7.0,94,0.00,,---,0.00,VWS V14.01,2013-01-30 08:53:00,
2013-01-30 03:56:00,65.2,63.4,30.01,SW,224,1.0,7.0,94,0.00,,---,0.00,VWS V14.01,2013-01-30 08:56:00,
2013-01-30 03:59:00,65.2,63.4,30.01,SW,224,1.0,7.0,94,0.00,,---,0.00,VWS V14.01,2013-01-30 08:59:00,
2013-01-30 04:00:00,65.1,63.3,30.01,SW,224,0.0,7.0,94,0.00,,---,0.00,VWS V14.01,2013-01-30 09:00:00,
2013-01-30 04:02:00,65.1,63.3,30.01,SW,224,2.0,3.0,94,0.00,,---,0.00,VWS V14.01,2013-01-30 09:02:00,
2013-01-30 04:05:00,65.0,63.2,30.01,SW,224,1.0,4.0,94,0.00,,---,0.00,VWS V14.01,2013-01-30 09:05:00,
2013-01-30 04:08:00,65.0,63.2,30.01,SW,224,3.0,4.0,94,0.00,,---,0.00,VWS V14.01,2013-01-30 09:08:00,
2013-01-30 04:11:00,65.0,63.2,30.01,SW,224,2.0,4.0,94,0.00,,---,0.00,VWS V14.01,2013-01-30 09:11:00,
2013-01-30 04:14:00,64.9,63.1,30.01,SW,224,1.0,4.0,94,0.00,,---,0.00,VWS V14.01,2013-01-30 09:14:00,
2013-01-30 04:15:00,64.9,63.1,30.01,SW,224,2.0,4.0,94,0.00,,---,0.00,VWS V14.01,2013-01-30 09:15:00,
2013-01-30 04:17:00,64.9,63.4,30.01,SSE,151,2.0,4.0,95,0.00,,---,0.00,VWS V14.01,2013-01-30 09:17:00,
2013-01-30 04:20:00,64.9,63.4,30.01,SSE,155,1.0,4.0,95,0.00,,---,0.00,VWS V14.01,2013-01-30 09:20:00,
2013-01-30 04:23:00,64.8,63.3,30.01,SSE,159,1.0,4.0,95,0.00,,---,0.00,VWS V14.01,2013-01-30 09:23:00,
2013-01-30 04:29:00,64.9,63.4,30.00,SW,220,3.0,5.0,95,0.00,,---,0.00,VWS V14.01,2013-01-30 09:29:00,
2013-01-30 04:30:00,64.8,63.3,30.00,SW,219,3.0,5.0,95,0.00,,---,0.00,VWS V14.01,2013-01-30 09:30:00,
2013-01-30 04:32:00,64.9,63.4,30.00,SW,219,1.0,3.0,95,0.00,,---,0.00,VWS V14.01,2013-01-30 09:32:00,
2013-01-30 04:35:00,64.9,63.4,30.00,SW,220,3.0,5.0,95,0.00,,---,0.00,VWS V14.01,2013-01-30 09:35:00,
2013-01-30 04:37:00,64.8,63.3,30.01,SW,223,3.0,5.0,95,0.00,,---,0.00,VWS V14.01,2013-01-30 09:37:00,
2013-01-30 04:38:00,64.9,63.4,30.00,SW,219,2.0,5.0,95,0.00,,---,0.00,VWS V14.01,2013-01-30 09:38:00,
2013-01-30 04:41:00,64.9,63.4,30.00,SW,223,4.0,5.0,95,0.00,,---,0.00,VWS V14.01,2013-01-30 09:41:00,
2013-01-30 04:44:00,64.9,63.4,30.00,SW,223,1.0,5.0,95,0.00,,---,0.00,VWS V14.01,2013-01-30 09:44:00,
2013-01-30 04:45:00,64.9,63.4,30.00,SW,223,2.0,5.0,95,0.00,,---,0.00,VWS V14.01,2013-01-30 09:45:00,
2013-01-30 04:47:00,64.9,63.4,30.00,SW,223,0.0,4.0,95,0.00,,---,0.00,VWS V14.01,2013-01-30 09:47:00,
2013-01-30 04:50:00,64.9,63.4,30.00,SW,223,3.0,4.0,95,0.00,,---,0.00,VWS V14.01,2013-01-30 09:50:00,
2013-01-30 04:53:00,64.9,63.4,30.00,SW,217,2.0,4.0,95,0.00,,---,0.00,VWS V14.01,2013-01-30 09:53:00,
2013-01-30 04:56:00,64.9,63.4,30.00,SW,215,2.0,4.0,95,0.00,,---,0.00,VWS V14.01,2013-01-30 09:56:00,
2013-01-30 04:59:00,65.0,63.5,29.99,SSW,192,2.0,4.0,95,0.00,,---,0.00,VWS V14.01,2013-01-30 09:59:00,
2013-01-30 05:00:00,65.0,63.5,29.99,SSW,192,3.0,4.0,95,0.00,,---,0.00,VWS V14.01,2013-01-30 10:00:00,
2013-01-30 05:02:00,65.0,63.5,29.99,SW,225,2.0,6.0,95,0.00,,---,0.00,VWS V14.01,2013-01-30 10:02:00,
2013-01-30 05:05:00,65.0,63.5,29.99,SW,223,2.0,6.0,95,0.00,,---,0.00,VWS V14.01,2013-01-30 10:05:00,
2013-01-30 05:08:00,65.1,63.6,29.99,SSW,210,4.0,6.0,95,0.00,,---,0.00,VWS V14.01,2013-01-30 10:08:00,
2013-01-30 05:11:00,65.2,63.7,29.99,SW,219,4.0,6.0,95,0.00,,---,0.00,VWS V14.01,2013-01-30 10:11:00,
2013-01-30 05:14:00,65.2,63.7,29.99,SSW,206,3.0,6.0,95,0.00,,---,0.00,VWS V14.01,2013-01-30 10:14:00,
2013-01-30 05:15:00,65.3,63.8,29.99,SSW,206,2.0,6.0,95,0.00,,---,0.00,VWS V14.01,2013-01-30 10:15:00,
2013-01-30 05:17:00,65.3,63.8,29.99,SW,214,4.0,7.0,95,0.00,,---,0.00,VWS V14.01,2013-01-30 10:17:00,
2013-01-30 05:20:00,65.4,63.9,29.99,SSW,205,3.0,7.0,95,0.00,,---,0.00,VWS V14.01,2013-01-30 10:20:00,
2013-01-30 05:23:00,65.4,63.9,29.99,SSW,206,2.0,7.0,95,0.00,,---,0.00,VWS V14.01,2013-01-30 10:23:00,
2013-01-30 05:29:00,65.4,63.9,29.99,SSW,213,3.0,7.0,95,0.00,,---,0.00,VWS V14.01,2013-01-30 10:29:00,
2013-01-30 05:30:00,65.5,64.0,29.99,SSW,213,2.0,7.0,95,0.00,,---,0.00,VWS V14.01,2013-01-30 10:30:00,
2013-01-30 05:32:00,65.5,64.0,29.99,SSW,213,3.0,5.0,95,0.00,,---,0.00,VWS V14.01,2013-01-30 10:32:00,
2013-01-30 05:35:00,65.5,64.0,29.99,SW,225,0.0,5.0,95,0.00,,---,0.00,VWS V14.01,2013-01-30 10:35:00,
2013-01-30 05:37:00,65.4,63.9,29.99,SSW,206,0.0,7.0,95,0.00,,---,0.00,VWS V14.01,2013-01-30 10:37:00,
2013-01-30 05:38:00,65.4,63.9,29.99,SW,225,3.0,5.0,95,0.00,,---,0.00,VWS V14.01,2013-01-30 10:38:00,
2013-01-30 05:41:00,65.4,63.9,29.99,SSW,204,4.0,5.0,95,0.00,,---,0.00,VWS V14.01,2013-01-30 10:41:00,
2013-01-30 05:44:00,65.4,63.9,29.98,SW,217,3.0,5.0,95,0.00,,---,0.00,VWS V14.01,2013-01-30 10:44:00,
2013-01-30 05:45:00,65.4,63.9,29.98,SW,217,3.0,5.0,95,0.00,,---,0.00,VWS V14.01,2013-01-30 10:45:00,
2013-01-30 05:47:00,65.4,63.9,29.98,South,176,2.0,5.0,95,0.00,,---,0.00,VWS V14.01,2013-01-30 10:47:00,
2013-01-30 05:50:00,65.4,63.9,29.98,South,185,3.0,5.0,95,0.00,,---,0.00,VWS V14.01,2013-01-30 10:50:00,
2013-01-30 05:53:00,65.4,63.9,29.98,SW,223,2.0,6.0,95,0.00,,---,0.00,VWS V14.01,2013-01-30 10:53:00,
2013-01-30 05:56:00,65.4,63.9,29.98,SW,222,1.0,6.0,95,0.00,,---,0.00,VWS V14.01,2013-01-30 10:56:00,
2013-01-30 05:59:00,65.4,63.6,30.00,SW,222,0.0,6.0,94,0.00,,---,0.00,VWS V14.01,2013-01-30 10:59:00,
2013-01-30 06:00:00,65.4,63.6,30.00,SW,222,0.0,6.0,94,0.00,,---,0.00,VWS V14.01,2013-01-30 11:00:00,
2013-01-30 06:05:00,65.4,63.6,30.00,SW,222,2.0,5.0,94,0.00,,---,0.00,VWS V14.01,2013-01-30 11:05:00,
2013-01-30 06:13:00,65.4,63.9,30.00,SW,222,1.0,3.0,95,0.00,,---,0.00,VWS V14.01,2013-01-30 11:13:00,
2013-01-30 06:15:00,65.3,63.5,29.99,SW,223,4.0,5.0,94,0.00,,---,0.00,VWS V14.01,2013-01-30 11:15:00,
2013-01-30 06:18:00,65.3,63.5,29.99,SW,223,2.0,4.0,94,0.00,,---,0.00,VWS V14.01,2013-01-30 11:18:00,
2013-01-30 06:19:00,65.4,63.6,30.00,SW,223,2.0,5.0,94,0.00,,---,0.00,VWS V14.01,2013-01-30 11:19:00,
2013-01-30 06:20:00,65.3,63.5,29.99,SW,223,2.0,4.0,94,0.00,,---,0.00,VWS V14.01,2013-01-30 11:20:00,
2013-01-30 06:23:00,65.3,63.5,29.99,SW,223,0.0,4.0,94,0.00,,---,0.00,VWS V14.01,2013-01-30 11:23:00,
2013-01-30 06:25:00,65.3,63.5,29.99,SW,223,2.0,5.0,94,0.00,,---,0.00,VWS V14.01,2013-01-30 11:25:00,
2013-01-30 06:27:00,65.3,63.5,29.99,SW,223,0.0,4.0,94,0.00,,---,0.00,VWS V14.01,2013-01-30 11:27:00,
2013-01-30 06:30:00,65.3,63.5,30.00,SW,223,2.0,4.0,94,0.00,,---,0.00,VWS V14.01,2013-01-30 11:30:00,
2013-01-30 06:33:00,65.3,63.5,30.00,SW,226,2.0,6.0,94,0.00,,---,0.00,VWS V14.01,2013-01-30 11:33:00,
2013-01-30 06:36:00,65.3,63.5,30.00,SW,225,6.0,6.0,94,0.00,,---,0.00,VWS V14.01,2013-01-30 11:36:00,
2013-01-30 06:39:00,65.3,63.5,30.00,SSW,211,1.0,6.0,94,0.00,,---,0.00,VWS V14.01,2013-01-30 11:39:00,
2013-01-30 06:42:00,65.4,63.6,30.00,SSW,211,3.0,6.0,94,0.00,,---,0.00,VWS V14.01,2013-01-30 11:42:00,
2013-01-30 06:45:00,65.3,63.5,29.99,SW,220,2.0,6.0,94,0.00,,---,0.00,VWS V14.01,2013-01-30 11:45:00,
2013-01-30 06:48:00,65.4,63.6,29.99,SW,220,2.0,4.0,94,0.00,,---,0.00,VWS V14.01,2013-01-30 11:48:00,
2013-01-30 06:51:00,65.4,63.6,29.99,SW,220,3.0,4.0,94,0.00,,---,0.00,VWS V14.01,2013-01-30 11:51:00,
2013-01-30 06:54:00,65.4,63.6,29.99,SW,226,2.0,5.0,94,0.00,,---,0.00,VWS V14.01,2013-01-30 11:54:00,
2013-01-30 06:57:00,65.4,63.6,29.99,SW,221,2.0,6.0,94,0.00,,---,0.00,VWS V14.01,2013-01-30 11:57:00,
2013-01-30 07:00:00,65.4,63.6,30.00,SW,221,3.0,6.0,94,0.00,,---,0.00,VWS V14.01,2013-01-30 12:00:00,
2013-01-30 07:03:00,65.5,63.7,30.00,SW,221,2.0,4.0,94,0.00,,---,0.00,VWS V14.01,2013-01-30 12:03:00,
2013-01-30 07:06:00,65.5,63.7,30.00,South,172,2.0,4.0,94,0.00,,---,0.00,VWS V14.01,2013-01-30 12:06:00,
2013-01-30 07:09:00,65.6,63.8,30.00,SSW,203,2.0,4.0,94,0.00,,---,0.00,VWS V14.01,2013-01-30 12:09:00,
2013-01-30 07:12:00,65.7,63.9,30.00,SSW,211,1.0,4.0,94,0.00,,---,0.00,VWS V14.01,2013-01-30 12:12:00,
2013-01-30 07:15:00,65.7,63.9,29.99,SSW,212,0.0,4.0,94,0.00,,---,0.00,VWS V14.01,2013-01-30 12:15:00,
2013-01-30 07:18:00,65.8,64.0,29.99,SSW,212,2.0,6.0,94,0.00,,---,0.00,VWS V14.01,2013-01-30 12:18:00,
2013-01-30 07:21:00,65.8,64.0,29.99,SSW,212,2.0,6.0,94,0.00,,---,0.00,VWS V14.01,2013-01-30 12:21:00,
2013-01-30 07:24:00,65.8,64.0,29.99,SSW,212,3.0,6.0,94,0.00,,---,0.00,VWS V14.01,2013-01-30 12:24:00,
2013-01-30 07:27:00,65.8,64.0,29.99,SSW,208,2.0,6.0,94,0.00,,---,0.00,VWS V14.01,2013-01-30 12:27:00,
2013-01-30 07:30:00,65.7,63.6,29.99,SW,225,2.0,6.0,93,0.00,,---,0.00,VWS V14.01,2013-01-30 12:30:00,
2013-01-30 07:33:00,65.7,63.6,29.99,SW,225,2.0,3.0,93,0.00,,---,0.00,VWS V14.01,2013-01-30 12:33:00,
2013-01-30 07:36:00,65.6,63.5,29.99,SW,225,0.0,3.0,93,0.00,,---,0.00,VWS V14.01,2013-01-30 12:36:00,
2013-01-30 07:39:00,65.5,63.4,29.99,SW,225,3.0,3.0,93,0.00,,---,0.00,VWS V14.01,2013-01-30 12:39:00,
2013-01-30 07:42:00,65.5,63.7,29.99,SW,225,2.0,5.0,94,0.00,,---,0.00,VWS V14.01,2013-01-30 12:42:00,
2013-01-30 07:45:00,65.5,63.7,29.98,SW,225,2.0,5.0,94,0.00,,---,0.00,VWS V14.01,2013-01-30 12:45:00,
2013-01-30 07:48:00,65.6,63.8,29.98,SW,223,3.0,4.0,94,0.00,,---,0.00,VWS V14.01,2013-01-30 12:48:00,
2013-01-30 07:51:00,65.6,63.8,29.98,SSW,202,3.0,5.0,94,0.00,,---,0.00,VWS V14.01,2013-01-30 12:51:00,
2013-01-30 07:54:00,65.7,63.9,29.98,SW,220,5.0,5.0,94,0.00,,---,0.00,VWS V14.01,2013-01-30 12:54:00,
2013-01-30 07:57:00,65.7,63.9,29.98,SSE,163,3.0,5.0,94,0.00,,---,0.00,VWS V14.01,2013-01-30 12:57:00,
2013-01-30 08:00:00,65.7,63.9,29.97,South,170,1.0,5.0,94,0.00,,---,0.00,VWS V14.01,2013-01-30 13:00:00,
2013-01-30 08:03:00,65.7,63.9,29.97,South,169,3.0,4.0,94,0.00,,---,0.00,VWS V14.01,2013-01-30 13:03:00,
2013-01-30 08:06:00,65.7,63.9,29.97,SSE,155,2.0,5.0,94,0.00,,---,0.00,VWS V14.01,2013-01-30 13:06:00,
2013-01-30 08:09:00,65.8,64.0,29.97,SSW,213,3.0,5.0,94,0.00,,---,0.00,VWS V14.01,2013-01-30 13:09:00,
2013-01-30 08:12:00,66.0,64.2,29.97,SW,221,1.0,5.0,94,0.00,,---,0.00,VWS V14.01,2013-01-30 13:12:00,
2013-01-30 08:15:00,66.2,64.7,29.97,SW,222,3.0,5.0,95,0.00,,---,0.00,VWS V14.01,2013-01-30 13:15:00,
2013-01-30 08:18:00,66.4,64.6,29.97,South,169,3.0,7.0,94,0.00,,---,0.00,VWS V14.01,2013-01-30 13:18:00,
2013-01-30 08:21:00,66.6,64.8,29.97,SW,220,4.0,7.0,94,0.00,,---,0.00,VWS V14.01,2013-01-30 13:21:00,
2013-01-30 08:24:00,66.7,64.9,29.97,South,189,3.0,7.0,94,0.00,,---,0.00,VWS V14.01,2013-01-30 13:24:00,
2013-01-30 08:27:00,66.8,65.0,29.97,SSW,213,1.0,7.0,94,0.00,,---,0.00,VWS V14.01,2013-01-30 13:27:00,
2013-01-30 08:30:00,66.9,65.1,29.97,SW,215,1.0,7.0,94,0.00,,---,0.00,VWS V14.01,2013-01-30 13:30:00,
2013-01-30 08:33:00,66.9,65.1,29.97,SW,215,2.0,4.0,94,0.00,,---,0.00,VWS V14.01,2013-01-30 13:33:00,
2013-01-30 08:36:00,67.0,65.2,29.97,SW,214,4.0,4.0,94,0.00,,---,0.00,VWS V14.01,2013-01-30 13:36:00,
2013-01-30 08:39:00,67.0,64.9,29.97,SW,221,3.0,4.0,93,0.00,,---,0.00,VWS V14.01,2013-01-30 13:39:00,
2013-01-30 08:42:00,67.1,65.0,29.97,South,169,2.0,6.0,93,0.00,,---,0.00,VWS V14.01,2013-01-30 13:42:00,
2013-01-30 08:45:00,67.2,65.1,29.97,South,175,3.0,6.0,93,0.00,,---,0.00,VWS V14.01,2013-01-30 13:45:00,
2013-01-30 08:48:00,67.3,65.5,29.97,South,178,3.0,4.0,94,0.00,,---,0.00,VWS V14.01,2013-01-30 13:48:00,
2013-01-30 08:51:00,67.4,65.3,29.97,SSE,159,4.0,6.0,93,0.00,,---,0.00,VWS V14.01,2013-01-30 13:51:00,
2013-01-30 08:54:00,67.5,65.4,29.97,SW,228,1.0,6.0,93,0.00,,---,0.00,VWS V14.01,2013-01-30 13:54:00,
2013-01-30 08:57:00,67.5,65.4,29.97,SSE,160,2.0,6.0,93,0.00,,---,0.00,VWS V14.01,2013-01-30 13:57:00,
2013-01-30 09:00:00,67.6,65.5,29.96,SSW,195,2.0,6.0,93,0.00,,---,0.00,VWS V14.01,2013-01-30 14:00:00,
2013-01-30 09:03:00,67.6,65.5,29.96,SSW,212,5.0,7.0,93,0.00,,---,0.00,VWS V14.01,2013-01-30 14:03:00,
2013-01-30 09:06:00,67.7,65.6,29.96,SW,214,5.0,7.0,93,0.00,,---,0.00,VWS V14.01,2013-01-30 14:06:00,
2013-01-30 09:09:00,67.7,65.3,29.96,SSW,210,2.0,7.0,92,0.00,,---,0.00,VWS V14.01,2013-01-30 14:09:00,
2013-01-30 09:12:00,67.9,65.5,29.96,SSW,205,1.0,7.0,92,0.00,,---,0.00,VWS V14.01,2013-01-30 14:12:00,
2013-01-30 09:15:00,67.9,65.5,29.96,SSE,164,4.0,7.0,92,0.00,,---,0.00,VWS V14.01,2013-01-30 14:15:00,
2013-01-30 09:18:00,68.0,65.6,29.96,SW,214,5.0,7.0,92,0.00,,---,0.00,VWS V14.01,2013-01-30 14:18:00,
2013-01-30 09:21:00,68.1,65.7,29.96,SSW,213,2.0,7.0,92,0.00,,---,0.00,VWS V14.01,2013-01-30 14:21:00,
2013-01-30 09:24:00,68.2,65.8,29.96,SW,214,1.0,7.0,92,0.00,,---,0.00,VWS V14.01,2013-01-30 14:24:00,
2013-01-30 09:27:00,68.3,65.9,29.96,South,182,3.0,7.0,92,0.00,,---,0.00,VWS V14.01,2013-01-30 14:27:00,
2013-01-30 09:30:00,68.4,66.0,29.95,SSW,193,3.0,7.0,92,0.00,,---,0.00,VWS V14.01,2013-01-30 14:30:00,
2013-01-30 09:33:00,68.5,65.8,29.95,South,175,4.0,11.0,91,0.00,,---,0.00,VWS V14.01,2013-01-30 14:33:00,
2013-01-30 09:36:00,68.5,65.8,29.95,South,182,4.0,11.0,91,0.00,,---,0.00,VWS V14.01,2013-01-30 14:36:00,
2013-01-30 09:39:00,68.5,65.8,29.95,South,187,4.0,11.0,91,0.00,,---,0.00,VWS V14.01,2013-01-30 14:39:00,
2013-01-30 09:42:00,68.5,65.8,29.95,SSE,149,4.0,11.0,91,0.00,,---,0.00,VWS V14.01,2013-01-30 14:42:00,
2013-01-30 09:45:00,68.5,65.8,29.96,SSW,209,2.0,11.0,91,0.00,,---,0.00,VWS V14.01,2013-01-30 14:45:00,
2013-01-30 09:48:00,68.5,65.8,29.96,SW,221,5.0,6.0,91,0.00,,---,0.00,VWS V14.01,2013-01-30 14:48:00,
2013-01-30 09:51:00,68.6,65.9,29.96,SSW,213,2.0,6.0,91,0.00,,---,0.00,VWS V14.01,2013-01-30 14:51:00,
2013-01-30 09:54:00,68.6,65.9,29.96,SSW,212,1.0,6.0,91,0.00,,---,0.00,VWS V14.01,2013-01-30 14:54:00,
2013-01-30 09:57:00,68.7,66.0,29.96,SW,230,2.0,6.0,91,0.00,,---,0.00,VWS V14.01,2013-01-30 14:57:00,
2013-01-30 10:00:00,68.7,66.0,29.96,WSW,248,2.0,6.0,91,0.00,,---,0.00,VWS V14.01,2013-01-30 15:00:00,
2013-01-30 10:03:00,68.8,66.1,29.96,SW,234,0.0,4.0,91,0.00,,---,0.00,VWS V14.01,2013-01-30 15:03:00,
2013-01-30 10:06:00,69.0,66.3,29.96,SW,228,3.0,6.0,91,0.00,,---,0.00,VWS V14.01,2013-01-30 15:06:00,
2013-01-30 10:12:00,69.0,65.9,29.96,SW,218,4.0,9.0,90,0.00,,---,0.00,VWS V14.01,2013-01-30 15:12:00,
2013-01-30 10:15:00,69.0,65.9,29.96,SW,219,1.0,9.0,90,0.00,,---,0.00,VWS V14.01,2013-01-30 15:15:00,
2013-01-30 10:18:00,69.0,65.9,29.96,SSW,213,4.0,7.0,90,0.00,,---,0.00,VWS V14.01,2013-01-30 15:18:00,
2013-01-30 10:20:00,69.0,65.9,29.96,SW,218,3.0,9.0,90,0.00,,---,0.00,VWS V14.01,2013-01-30 15:20:00,
2013-01-30 10:21:00,69.0,66.3,29.96,SSW,211,5.0,7.0,91,0.00,,---,0.00,VWS V14.01,2013-01-30 15:21:00,
2013-01-30 10:24:00,69.2,66.5,29.96,SW,220,2.0,7.0,91,0.00,,---,0.00,VWS V14.01,2013-01-30 15:24:00,
2013-01-30 10:26:00,69.0,65.9,29.96,SW,223,6.0,6.0,90,0.00,,---,0.00,VWS V14.01,2013-01-30 15:26:00,
2013-01-30 10:27:00,69.3,66.6,29.96,SW,217,3.0,7.0,91,0.00,,---,0.00,VWS V14.01,2013-01-30 15:27:00,
2013-01-30 10:30:00,69.4,66.7,29.95,SW,217,2.0,7.0,91,0.00,,---,0.00,VWS V14.01,2013-01-30 15:30:00,
2013-01-30 10:33:00,69.7,67.0,29.95,SW,216,6.0,6.0,91,0.00,,---,0.00,VWS V14.01,2013-01-30 15:33:00,
2013-01-30 10:36:00,69.8,67.1,29.95,SW,216,6.0,7.0,91,0.00,,---,0.00,VWS V14.01,2013-01-30 15:36:00,
2013-01-30 10:42:00,70.0,66.9,29.95,SSE,159,1.0,7.0,90,0.00,,---,0.00,VWS V14.01,2013-01-30 15:42:00,
2013-01-30 10:45:00,70.1,67.0,29.94,SSW,205,2.0,7.0,90,0.00,,---,0.00,VWS V14.01,2013-01-30 15:45:00,
2013-01-30 10:48:00,70.2,66.8,29.94,SW,224,3.0,7.0,89,0.00,,---,0.00,VWS V14.01,2013-01-30 15:48:00,
2013-01-30 10:50:00,69.9,66.8,29.95,SW,220,3.0,7.0,90,0.00,,---,0.00,VWS V14.01,2013-01-30 15:50:00,
2013-01-30 10:51:00,70.2,66.8,29.94,SW,220,2.0,10.0,89,0.00,,---,0.00,VWS V14.01,2013-01-30 15:51:00,
2013-01-30 10:54:00,70.2,66.8,29.94,SW,220,5.0,12.0,89,0.00,,---,0.00,VWS V14.01,2013-01-30 15:54:00,
2013-01-30 10:58:00,70.3,66.9,29.94,WSW,239,3.0,12.0,89,0.00,,---,0.00,VWS V14.01,2013-01-30 15:58:00,
2013-01-30 11:00:00,70.3,66.9,29.95,SW,232,4.0,12.0,89,0.00,,---,0.00,VWS V14.01,2013-01-30 16:00:00,
2013-01-30 11:04:00,70.3,66.9,29.95,SW,218,3.0,4.0,89,0.00,,---,0.00,VWS V14.01,2013-01-30 16:04:00,
2013-01-30 11:07:00,70.3,66.9,29.95,SSW,192,2.0,5.0,89,0.00,,---,0.00,VWS V14.01,2013-01-30 16:07:00,
2013-01-30 11:10:00,70.3,67.2,29.95,SW,223,1.0,5.0,90,0.00,,---,0.00,VWS V14.01,2013-01-30 16:10:00,
2013-01-30 11:13:00,70.4,67.3,29.95,SW,219,0.0,5.0,90,0.00,,---,0.00,VWS V14.01,2013-01-30 16:13:00,
2013-01-30 11:15:00,70.5,67.4,29.94,SW,217,5.0,6.0,90,0.00,,---,0.00,VWS V14.01,2013-01-30 16:15:00,
2013-01-30 11:16:00,70.5,67.4,29.94,SW,232,3.0,5.0,90,0.00,,---,0.00,VWS V14.01,2013-01-30 16:16:00,
2013-01-30 11:19:00,70.5,67.4,29.94,SSW,199,1.0,5.0,90,0.00,,---,0.00,VWS V14.01,2013-01-30 16:19:00,
2013-01-30 11:22:00,70.4,67.0,29.94,SW,216,5.0,6.0,89,0.00,,---,0.00,VWS V14.01,2013-01-30 16:22:00,
2013-01-30 11:25:00,70.4,67.0,29.94,SW,227,3.0,6.0,89,0.00,,---,0.00,VWS V14.01,2013-01-30 16:25:00,
2013-01-30 11:28:00,70.4,67.0,29.94,SSE,163,2.0,6.0,89,0.00,,---,0.00,VWS V14.01,2013-01-30 16:28:00,
2013-01-30 11:30:00,70.4,67.0,29.93,SW,217,6.0,7.0,89,0.00,,---,0.00,VWS V14.01,2013-01-30 16:30:00,
2013-01-30 11:31:00,70.4,67.0,29.93,SSW,213,4.0,7.0,89,0.00,,---,0.00,VWS V14.01,2013-01-30 16:31:00,
2013-01-30 11:34:00,70.3,66.9,29.93,WSW,246,4.0,7.0,89,0.00,,---,0.00,VWS V14.01,2013-01-30 16:34:00,
2013-01-30 11:37:00,70.2,66.8,29.93,SW,223,2.0,7.0,89,0.00,,---,0.00,VWS V14.01,2013-01-30 16:37:00,
2013-01-30 11:40:00,70.3,66.9,29.93,SW,232,3.0,11.0,89,0.00,,---,0.00,VWS V14.01,2013-01-30 16:40:00,
2013-01-30 11:43:00,70.3,66.9,29.93,SW,221,2.0,11.0,89,0.00,,---,0.00,VWS V14.01,2013-01-30 16:43:00,
2013-01-30 11:45:00,70.4,67.0,29.92,South,183,3.0,11.0,89,0.00,,---,0.00,VWS V14.01,2013-01-30 16:45:00,
2013-01-30 11:46:00,70.4,67.0,29.92,SW,218,6.0,7.0,89,0.00,,---,0.00,VWS V14.01,2013-01-30 16:46:00,
2013-01-30 11:49:00,70.5,66.8,29.92,SW,221,3.0,7.0,88,0.00,,---,0.00,VWS V14.01,2013-01-30 16:49:00,
2013-01-30 11:52:00,70.6,66.9,29.92,SSW,210,4.0,7.0,88,0.00,,---,0.00,VWS V14.01,2013-01-30 16:52:00,
2013-01-30 11:55:00,70.7,67.0,29.92,SW,220,2.0,7.0,88,0.00,,---,0.00,VWS V14.01,2013-01-30 16:55:00,
2013-01-30 11:58:00,70.6,66.6,29.92,SW,214,0.0,7.0,87,0.00,,---,0.00,VWS V14.01,2013-01-30 16:58:00,
2013-01-30 12:00:00,70.6,66.6,29.91,SW,230,6.0,9.0,87,0.00,,---,0.00,VWS V14.01,2013-01-30 17:00:00,
2013-01-30 12:01:00,70.6,66.6,29.91,SSW,197,7.0,8.0,87,0.00,,---,0.00,VWS V14.01,2013-01-30 17:01:00,
2013-01-30 12:04:00,70.4,66.3,29.91,SW,224,2.0,12.0,87,0.00,,---,0.00,VWS V14.01,2013-01-30 17:04:00,
2013-01-30 12:07:00,70.3,66.2,29.91,WSW,258,3.0,12.0,87,0.00,,---,0.00,VWS V14.01,2013-01-30 17:07:00,
2013-01-30 12:10:00,70.4,66.7,29.91,WSW,255,4.0,12.0,88,0.00,,---,0.00,VWS V14.01,2013-01-30 17:10:00,
2013-01-30 12:13:00,70.5,66.8,29.91,SSW,213,3.0,12.0,88,0.00,,---,0.00,VWS V14.01,2013-01-30 17:13:00,
2013-01-30 12:15:00,70.7,66.7,29.90,SW,220,4.0,12.0,87,0.00,,---,0.00,VWS V14.01,2013-01-30 17:15:00,
2013-01-30 12:16:00,70.8,66.7,29.90,SSW,203,3.0,10.0,87,0.00,,---,0.00,VWS V14.01,2013-01-30 17:16:00,
2013-01-30 12:19:00,70.9,66.5,29.90,SW,216,5.0,14.0,86,0.00,,---,0.00,VWS V14.01,2013-01-30 17:19:00,
2013-01-30 12:22:00,70.9,66.5,29.90,SW,219,4.0,14.0,86,0.00,,---,0.00,VWS V14.01,2013-01-30 17:22:00,
2013-01-30 12:25:00,71.0,66.6,29.90,SW,219,6.0,14.0,86,0.00,,---,0.00,VWS V14.01,2013-01-30 17:25:00,
2013-01-30 12:28:00,71.1,66.7,29.90,SSW,203,10.0,14.0,86,0.00,,---,0.00,VWS V14.01,2013-01-30 17:28:00,
2013-01-30 12:30:00,71.1,66.4,29.89,South,189,7.0,14.0,85,0.00,,---,0.00,VWS V14.01,2013-01-30 17:30:00,
2013-01-30 12:31:00,71.1,66.4,29.89,WSW,240,4.0,7.0,85,0.00,,---,0.00,VWS V14.01,2013-01-30 17:31:00,
2013-01-30 12:34:00,71.2,66.5,29.89,SW,215,3.0,7.0,85,0.00,,---,0.00,VWS V14.01,2013-01-30 17:34:00,
2013-01-30 12:37:00,71.3,66.6,29.89,SSW,198,4.0,7.0,85,0.00,,---,0.00,VWS V14.01,2013-01-30 17:37:00,
2013-01-30 12:40:00,71.4,66.7,29.89,South,189,3.0,11.0,85,0.00,,---,0.00,VWS V14.01,2013-01-30 17:40:00,
2013-01-30 12:43:00,71.4,66.3,29.89,SW,223,2.0,11.0,84,0.00,,---,0.00,VWS V14.01,2013-01-30 17:43:00,
2013-01-30 12:45:00,71.3,66.2,29.89,SW,217,5.0,13.0,84,0.00,,---,0.00,VWS V14.01,2013-01-30 17:45:00,
2013-01-30 12:46:00,71.3,66.2,29.89,SW,217,4.0,5.0,84,0.00,,---,0.00,VWS V14.01,2013-01-30 17:46:00,
2013-01-30 12:49:00,71.3,66.2,29.89,SW,227,6.0,7.0,84,0.00,,---,0.00,VWS V14.01,2013-01-30 17:49:00,
2013-01-30 12:52:00,71.3,66.2,29.89,SW,223,3.0,13.0,84,0.00,,---,0.00,VWS V14.01,2013-01-30 17:52:00,
2013-01-30 12:55:00,71.5,66.4,29.89,SW,223,3.0,13.0,84,0.00,,---,0.00,VWS V14.01,2013-01-30 17:55:00,
2013-01-30 12:58:00,71.6,66.5,29.89,SW,231,3.0,13.0,84,0.00,,---,0.00,VWS V14.01,2013-01-30 17:58:00,
2013-01-30 13:00:00,71.7,66.6,29.87,SSE,160,9.0,13.0,84,0.00,,---,0.00,VWS V14.01,2013-01-30 18:00:00,
2013-01-30 13:01:00,71.6,66.5,29.87,West,265,6.0,10.0,84,0.00,,---,0.00,VWS V14.01,2013-01-30 18:01:00,
2013-01-30 13:04:00,71.6,66.5,29.87,South,183,10.0,13.0,84,0.00,,---,0.00,VWS V14.01,2013-01-30 18:04:00,
2013-01-30 13:07:00,71.6,66.5,29.87,SSW,206,6.0,13.0,84,0.00,,---,0.00,VWS V14.01,2013-01-30 18:07:00,
2013-01-30 13:10:00,71.5,66.4,29.87,SW,221,7.0,13.0,84,0.00,,---,0.00,VWS V14.01,2013-01-30 18:10:00,
2013-01-30 13:13:00,71.3,66.2,29.87,WNW,286,1.0,13.0,84,0.00,,---,0.00,VWS V14.01,2013-01-30 18:13:00,
2013-01-30 13:15:00,71.3,66.2,29.87,SSW,207,11.0,13.0,84,0.00,,---,0.00,VWS V14.01,2013-01-30 18:15:00,
2013-01-30 13:16:00,71.4,66.3,29.87,SW,229,3.0,13.0,84,0.00,,---,0.00,VWS V14.01,2013-01-30 18:16:00,
2013-01-30 13:19:00,71.5,66.4,29.87,SW,227,7.0,13.0,84,0.00,,---,0.00,VWS V14.01,2013-01-30 18:19:00,
2013-01-30 13:22:00,71.7,66.6,29.87,SSW,200,3.0,13.0,84,0.00,,---,0.00,VWS V14.01,2013-01-30 18:22:00,
2013-01-30 13:25:00,72.0,66.6,29.87,SW,235,1.0,13.0,83,0.00,,---,0.00,VWS V14.01,2013-01-30 18:25:00,
2013-01-30 13:28:00,72.2,66.8,29.87,SW,225,4.0,13.0,83,0.00,,---,0.00,VWS V14.01,2013-01-30 18:28:00,
2013-01-30 13:30:00,72.3,66.8,29.86,SW,225,6.0,13.0,83,0.00,,---,0.00,VWS V14.01,2013-01-30 18:30:00,
2013-01-30 13:31:00,72.4,66.6,29.86,SW,217,9.0,13.0,82,0.00,,---,0.00,VWS V14.01,2013-01-30 18:31:00,
2013-01-30 13:34:00,72.3,66.5,29.86,SSW,197,4.0,17.0,82,0.00,,---,0.00,VWS V14.01,2013-01-30 18:34:00,
2013-01-30 13:37:00,72.4,66.6,29.86,SSW,198,7.0,17.0,82,0.00,,---,0.00,VWS V14.01,2013-01-30 18:37:00,
2013-01-30 13:43:00,72.6,66.4,29.86,SW,220,0.0,17.0,81,0.00,,---,0.00,VWS V14.01,2013-01-30 18:43:00,
2013-01-30 13:45:00,72.6,66.4,29.84,SW,221,7.0,17.0,81,0.00,,---,0.00,VWS V14.01,2013-01-30 18:45:00,
2013-01-30 13:46:00,72.7,66.5,29.84,SSE,165,4.0,7.0,81,0.00,,---,0.00,VWS V14.01,2013-01-30 18:46:00,
2013-01-30 13:49:00,72.8,66.6,29.84,SSW,193,4.0,13.0,81,0.00,,---,0.00,VWS V14.01,2013-01-30 18:49:00,
2013-01-30 13:52:00,72.7,66.5,29.84,SW,215,7.0,15.0,81,0.00,,---,0.00,VWS V14.01,2013-01-30 18:52:00,
2013-01-30 13:55:00,72.6,66.4,29.84,SW,215,6.0,15.0,81,0.00,,---,0.00,VWS V14.01,2013-01-30 18:55:00,
2013-01-30 13:58:00,72.7,66.5,29.84,SSW,205,5.0,15.0,81,0.00,,---,0.00,VWS V14.01,2013-01-30 18:58:00,
2013-01-30 14:00:00,72.7,66.5,29.83,SW,215,5.0,15.0,81,0.00,,---,0.00,VWS V14.01,2013-01-30 19:00:00,
2013-01-30 14:01:00,72.8,66.6,29.83,SSW,199,7.0,12.0,81,0.00,,---,0.00,VWS V14.01,2013-01-30 19:01:00,
2013-01-30 14:04:00,73.0,66.8,29.83,SSW,211,2.0,12.0,81,0.00,,---,0.00,VWS V14.01,2013-01-30 19:04:00,
2013-01-30 14:07:00,73.3,67.1,29.83,SW,235,15.0,15.0,81,0.00,,---,0.00,VWS V14.01,2013-01-30 19:07:00,
2013-01-30 14:10:00,73.2,66.7,29.83,SW,223,7.0,15.0,80,0.00,,---,0.00,VWS V14.01,2013-01-30 19:10:00,
2013-01-30 14:13:00,73.3,66.8,29.83,SW,225,5.0,15.0,80,0.00,,---,0.00,VWS V14.01,2013-01-30 19:13:00,
2013-01-30 14:15:00,73.3,66.8,29.83,SW,223,5.0,15.0,80,0.00,,---,0.00,VWS V14.01,2013-01-30 19:15:00,
2013-01-30 14:16:00,73.2,66.7,29.83,SW,231,5.0,9.0,80,0.00,,---,0.00,VWS V14.01,2013-01-30 19:16:00,
2013-01-30 14:19:00,73.1,66.6,29.83,SSW,207,10.0,14.0,80,0.00,,---,0.00,VWS V14.01,2013-01-30 19:19:00,
2013-01-30 14:22:00,73.1,66.9,29.83,SSW,198,5.0,14.0,81,0.00,,---,0.00,VWS V14.01,2013-01-30 19:22:00,
2013-01-30 14:25:00,73.2,66.7,29.83,WNW,286,3.0,14.0,80,0.00,,---,0.00,VWS V14.01,2013-01-30 19:25:00,
2013-01-30 14:28:00,73.2,66.7,29.83,SW,232,4.0,14.0,80,0.00,,---,0.00,VWS V14.01,2013-01-30 19:28:00,
2013-01-30 14:30:00,73.2,66.7,29.82,SSE,160,4.0,14.0,80,0.00,,---,0.00,VWS V14.01,2013-01-30 19:30:00,
2013-01-30 14:31:00,73.1,66.6,29.82,South,182,10.0,12.0,80,0.00,,---,0.00,VWS V14.01,2013-01-30 19:31:00,
2013-01-30 14:34:00,72.8,66.6,29.82,SW,230,4.0,12.0,81,0.00,,---,0.00,VWS V14.01,2013-01-30 19:34:00,
2013-01-30 14:37:00,72.6,66.4,29.82,SSW,202,6.0,12.0,81,0.00,,---,0.00,VWS V14.01,2013-01-30 19:37:00,
2013-01-30 14:41:00,72.3,66.5,29.82,SW,220,7.0,12.0,82,0.00,,---,0.00,VWS V14.01,2013-01-30 19:41:00,
2013-01-30 14:44:00,72.1,66.3,29.82,South,183,3.0,12.0,82,0.00,,---,0.00,VWS V14.01,2013-01-30 19:44:00,
2013-01-30 14:45:00,72.0,66.2,29.81,WSW,240,5.0,12.0,82,0.00,,---,0.00,VWS V14.01,2013-01-30 19:45:00,
2013-01-30 14:47:00,71.9,66.1,29.81,SSW,193,4.0,7.0,82,0.00,,---,0.00,VWS V14.01,2013-01-30 19:47:00,
2013-01-30 14:50:00,71.9,66.5,29.81,SSW,213,9.0,12.0,83,0.00,,---,0.00,VWS V14.01,2013-01-30 19:50:00,
2013-01-30 14:53:00,71.8,66.4,29.81,SW,236,12.0,12.0,83,0.00,,---,0.00,VWS V14.01,2013-01-30 19:53:00,
2013-01-30 14:56:00,71.7,66.3,29.81,SSW,193,4.0,13.0,83,0.00,,---,0.00,VWS V14.01,2013-01-30 19:56:00,
2013-01-30 14:59:00,71.7,66.3,29.81,SW,217,3.0,13.0,83,0.00,,---,0.00,VWS V14.01,2013-01-30 19:59:00,
2013-01-30 15:00:00,71.7,66.6,29.81,South,174,6.0,13.0,84,0.00,,---,0.00,VWS V14.01,2013-01-30 20:00:00,
2013-01-30 15:02:00,71.7,66.6,29.81,South,188,4.0,9.0,84,0.00,,---,0.00,VWS V14.01,2013-01-30 20:02:00,
2013-01-30 15:05:00,71.7,66.6,29.81,SSE,167,4.0,9.0,84,0.00,,---,0.00,VWS V14.01,2013-01-30 20:05:00,
2013-01-30 15:08:00,71.7,66.3,29.81,SSW,211,4.0,11.0,83,0.00,,---,0.00,VWS V14.01,2013-01-30 20:08:00,
2013-01-30 15:11:00,71.6,66.2,29.81,SW,224,2.0,11.0,83,0.00,,---,0.00,VWS V14.01,2013-01-30 20:11:00,
2013-01-30 15:14:00,71.5,66.4,29.80,SSW,198,5.0,11.0,84,0.00,,---,0.00,VWS V14.01,2013-01-30 20:14:00,
2013-01-30 15:15:00,71.5,66.4,29.80,SSE,157,3.0,11.0,84,0.00,,---,0.00,VWS V14.01,2013-01-30 20:15:00,
2013-01-30 15:17:00,71.6,66.5,29.80,SW,233,6.0,6.0,84,0.00,,---,0.00,VWS V14.01,2013-01-30 20:17:00,
2013-01-30 15:20:00,71.6,66.5,29.80,SSW,209,5.0,12.0,84,0.00,,---,0.00,VWS V14.01,2013-01-30 20:20:00,
2013-01-30 15:23:00,71.6,66.5,29.80,SSE,167,2.0,12.0,84,0.00,,---,0.00,VWS V14.01,2013-01-30 20:23:00,
2013-01-30 15:26:00,71.5,66.4,29.80,SW,227,13.0,13.0,84,0.00,,---,0.00,VWS V14.01,2013-01-30 20:26:00,
2013-01-30 15:29:00,71.5,66.4,29.79,SSW,213,9.0,13.0,84,0.00,,---,0.00,VWS V14.01,2013-01-30 20:29:00,
2013-01-30 15:30:00,71.4,66.3,29.79,SSW,201,2.0,13.0,84,0.00,,---,0.00,VWS V14.01,2013-01-30 20:30:00,
2013-01-30 15:32:00,71.3,66.2,29.79,South,182,6.0,14.0,84,0.00,,---,0.00,VWS V14.01,2013-01-30 20:32:00,
2013-01-30 15:35:00,71.3,66.2,29.79,SW,217,6.0,14.0,84,0.00,,---,0.00,VWS V14.01,2013-01-30 20:35:00,
2013-01-30 15:38:00,71.2,66.1,29.79,SW,223,4.0,14.0,84,0.00,,---,0.00,VWS V14.01,2013-01-30 20:38:00,
2013-01-30 15:41:00,71.2,66.1,29.79,SW,224,6.0,14.0,84,0.00,,---,0.00,VWS V14.01,2013-01-30 20:41:00,
2013-01-30 15:44:00,71.0,65.9,29.79,SW,225,7.0,14.0,84,0.00,,---,0.00,VWS V14.01,2013-01-30 20:44:00,
2013-01-30 15:45:00,71.0,65.9,29.79,SSW,202,3.0,14.0,84,0.00,,---,0.00,VWS V14.01,2013-01-30 20:45:00,
2013-01-30 15:47:00,70.9,66.2,29.79,South,173,5.0,6.0,85,0.00,,---,0.00,VWS V14.01,2013-01-30 20:47:00,
2013-01-30 15:50:00,70.8,66.1,29.79,SW,221,5.0,12.0,85,0.00,,---,0.00,VWS V14.01,2013-01-30 20:50:00,
2013-01-30 15:53:00,70.8,66.1,29.79,SSW,211,5.0,12.0,85,0.00,,---,0.00,VWS V14.01,2013-01-30 20:53:00,
2013-01-30 15:56:00,70.7,66.0,29.79,SW,227,10.0,12.0,85,0.00,,---,0.00,VWS V14.01,2013-01-30 20:56:00,
2013-01-30 15:59:00,70.7,66.0,29.78,South,190,4.0,12.0,85,0.00,,---,0.00,VWS V14.01,2013-01-30 20:59:00,
2013-01-30 16:00:00,70.6,65.9,29.78,SW,225,5.0,12.0,85,0.00,,---,0.00,VWS V14.01,2013-01-30 21:00:00,
2013-01-30 16:02:00,70.6,66.2,29.78,SW,218,2.0,12.0,86,0.00,,---,0.00,VWS V14.01,2013-01-30 21:02:00,
2013-01-30 16:05:00,70.6,66.2,29.78,SSE,161,4.0,12.0,86,0.00,,---,0.00,VWS V14.01,2013-01-30 21:05:00,
2013-01-30 16:08:00,70.6,66.2,29.78,SSE,156,6.0,12.0,86,0.00,,---,0.00,VWS V14.01,2013-01-30 21:08:00,
2013-01-30 16:11:00,70.6,66.2,29.78,SE,142,7.0,12.0,86,0.00,,---,0.00,VWS V14.01,2013-01-30 21:11:00,
2013-01-30 16:14:00,70.5,66.1,29.76,South,182,6.0,13.0,86,0.00,,---,0.00,VWS V14.01,2013-01-30 21:14:00,
2013-01-30 16:15:00,70.5,66.1,29.76,SSW,213,7.0,13.0,86,0.00,,---,0.00,VWS V14.01,2013-01-30 21:15:00,
2013-01-30 16:17:00,70.5,66.1,29.76,SW,223,6.0,9.0,86,0.00,,---,0.00,VWS V14.01,2013-01-30 21:17:00,
2013-01-30 16:20:00,70.4,66.0,29.76,South,176,6.0,9.0,86,0.00,,---,0.00,VWS V14.01,2013-01-30 21:20:00,
2013-01-30 16:23:00,70.2,65.8,29.76,SW,227,7.0,11.0,86,0.00,,---,0.00,VWS V14.01,2013-01-30 21:23:00,
2013-01-30 16:26:00,70.1,65.7,29.76,South,180,3.0,11.0,86,0.00,,---,0.00,VWS V14.01,2013-01-30 21:26:00,
2013-01-30 16:29:00,69.9,65.5,29.76,SSW,198,2.0,11.0,86,0.00,,---,0.00,VWS V14.01,2013-01-30 21:29:00,
2013-01-30 16:30:00,69.9,65.5,29.76,SW,234,5.0,11.0,86,0.00,,---,0.00,VWS V14.01,2013-01-30 21:30:00,
2013-01-30 16:32:00,69.8,65.4,29.76,South,178,2.0,11.0,86,0.00,,---,0.00,VWS V14.01,2013-01-30 21:32:00,
2013-01-30 16:35:00,69.7,65.3,29.76,South,182,3.0,11.0,86,0.00,,---,0.00,VWS V14.01,2013-01-30 21:35:00,
2013-01-30 16:38:00,69.6,65.2,29.76,SSW,207,5.0,11.0,86,0.00,,---,0.00,VWS V14.01,2013-01-30 21:38:00,
2013-01-30 16:41:00,69.5,65.5,29.76,SSW,209,4.0,11.0,87,0.00,,---,0.00,VWS V14.01,2013-01-30 21:41:00,
2013-01-30 16:44:00,69.4,65.4,29.76,SW,227,7.0,11.0,87,0.00,,---,0.00,VWS V14.01,2013-01-30 21:44:00,
2013-01-30 16:45:00,69.3,65.3,29.76,SE,132,2.0,11.0,87,0.00,,---,0.00,VWS V14.01,2013-01-30 21:45:00,
2013-01-30 16:47:00,69.3,65.3,29.76,South,175,2.0,4.0,87,0.00,,---,0.00,VWS V14.01,2013-01-30 21:47:00,
2013-01-30 16:50:00,69.2,65.2,29.76,South,190,3.0,7.0,87,0.00,,---,0.00,VWS V14.01,2013-01-30 21:50:00,
2013-01-30 16:53:00,69.1,65.1,29.76,SW,225,8.0,10.0,87,0.00,,---,0.00,VWS V14.01,2013-01-30 21:53:00,
2013-01-30 16:56:00,68.9,64.9,29.76,SSW,211,5.0,11.0,87,0.00,,---,0.00,VWS V14.01,2013-01-30 21:56:00,
2013-01-30 16:59:00,68.8,64.8,29.75,SSW,202,7.0,11.0,87,0.00,,---,0.00,VWS V14.01,2013-01-30 21:59:00,
2013-01-30 17:00:00,68.8,64.8,29.75,South,182,5.0,11.0,87,0.00,,---,0.00,VWS V14.01,2013-01-30 22:00:00,
2013-01-30 17:02:00,68.7,64.7,29.75,SSE,158,4.0,10.0,87,0.00,,---,0.00,VWS V14.01,2013-01-30 22:02:00,
2013-01-30 17:05:00,68.5,64.5,29.75,South,189,4.0,10.0,87,0.00,,---,0.00,VWS V14.01,2013-01-30 22:05:00,
2013-01-30 17:08:00,68.4,64.4,29.75,SSW,193,3.0,10.0,87,0.00,,---,0.00,VWS V14.01,2013-01-30 22:08:00,
2013-01-30 17:11:00,68.2,64.5,29.75,SW,233,11.0,11.0,88,0.00,,---,0.00,VWS V14.01,2013-01-30 22:11:00,
2013-01-30 17:14:00,68.0,64.3,29.74,SW,215,2.0,11.0,88,0.00,,---,0.00,VWS V14.01,2013-01-30 22:14:00,
2013-01-30 17:15:00,68.0,64.3,29.74,SSE,159,5.0,11.0,88,0.00,,---,0.00,VWS V14.01,2013-01-30 22:15:00,
2013-01-30 17:17:00,67.9,64.2,29.74,South,182,4.0,8.0,88,0.00,,---,0.00,VWS V14.01,2013-01-30 22:17:00,
2013-01-30 17:20:00,67.7,64.0,29.74,SW,232,9.0,11.0,88,0.00,,---,0.00,VWS V14.01,2013-01-30 22:20:00,
2013-01-30 17:23:00,67.5,64.2,29.74,SW,229,3.0,11.0,89,0.00,,---,0.00,VWS V14.01,2013-01-30 22:23:00,
2013-01-30 17:26:00,67.4,64.1,29.74,SW,225,5.0,11.0,89,0.00,,---,0.00,VWS V14.01,2013-01-30 22:26:00,
2013-01-30 17:29:00,67.3,64.0,29.73,SSW,198,6.0,11.0,89,0.00,,---,0.00,VWS V14.01,2013-01-30 22:29:00,
2013-01-30 17:30:00,67.3,64.0,29.73,South,182,4.0,11.0,89,0.00,,---,0.00,VWS V14.01,2013-01-30 22:30:00,
2013-01-30 17:32:00,67.2,64.2,29.73,SSW,202,7.0,10.0,90,0.00,,---,0.00,VWS V14.01,2013-01-30 22:32:00,
2013-01-30 17:35:00,67.2,64.2,29.73,SSW,205,4.0,11.0,90,0.00,,---,0.00,VWS V14.01,2013-01-30 22:35:00,
2013-01-30 17:38:00,67.2,64.2,29.73,SSW,203,2.0,11.0,90,0.00,,---,0.00,VWS V14.01,2013-01-30 22:38:00,
2013-01-30 17:41:00,67.1,64.1,29.73,WSW,242,10.0,12.0,90,0.00,,---,0.00,VWS V14.01,2013-01-30 22:41:00,
2013-01-30 17:44:00,67.1,64.4,29.73,South,169,3.0,12.0,91,0.00,,---,0.00,VWS V14.01,2013-01-30 22:44:00,
2013-01-30 17:45:00,67.1,64.4,29.73,SW,217,5.0,12.0,91,0.00,,---,0.00,VWS V14.01,2013-01-30 22:45:00,
2013-01-30 17:47:00,67.1,64.4,29.73,South,179,3.0,9.0,91,0.00,,---,0.00,VWS V14.01,2013-01-30 22:47:00,
2013-01-30 17:50:00,67.1,64.4,29.73,SSW,211,7.0,12.0,91,0.00,,---,0.00,VWS V14.01,2013-01-30 22:50:00,
2013-01-30 17:53:00,67.1,64.4,29.73,South,183,5.0,14.0,91,0.00,,---,0.00,VWS V14.01,2013-01-30 22:53:00,
2013-01-30 17:56:00,67.1,64.4,29.73,SSW,196,3.0,14.0,91,0.00,,---,0.00,VWS V14.01,2013-01-30 22:56:00,
2013-01-30 17:59:00,67.1,64.7,29.72,SW,225,6.0,14.0,92,0.00,,---,0.00,VWS V14.01,2013-01-30 22:59:00,
2013-01-30 18:00:00,67.1,64.7,29.72,SW,229,5.0,14.0,92,0.00,,---,0.00,VWS V14.01,2013-01-30 23:00:00,
2013-01-30 18:02:00,67.1,64.7,29.72,SW,215,7.0,10.0,92,0.00,,---,0.00,VWS V14.01,2013-01-30 23:02:00,
2013-01-30 18:05:00,67.1,64.7,29.72,SW,231,5.0,12.0,92,0.00,,---,0.00,VWS V14.01,2013-01-30 23:05:00,
2013-01-30 18:08:00,67.2,64.8,29.72,SSW,210,6.0,12.0,92,0.00,,---,0.00,VWS V14.01,2013-01-30 23:08:00,
2013-01-30 18:11:00,67.2,64.8,29.72,SSW,208,5.0,14.0,92,0.00,,---,0.00,VWS V14.01,2013-01-30 23:11:00,
2013-01-30 18:14:00,67.1,64.7,29.71,SW,223,10.0,14.0,92,0.00,,---,0.00,VWS V14.01,2013-01-30 23:14:00,
2013-01-30 18:15:00,67.1,64.7,29.71,SSW,198,5.0,14.0,92,0.00,,---,0.00,VWS V14.01,2013-01-30 23:15:00,
2013-01-30 18:17:00,67.2,64.8,29.71,SW,216,5.0,15.0,92,0.00,,---,0.00,VWS V14.01,2013-01-30 23:17:00,
2013-01-30 18:20:00,67.2,64.8,29.71,SSE,150,3.0,15.0,92,0.00,,---,0.00,VWS V14.01,2013-01-30 23:20:00,
2013-01-30 18:23:00,67.2,64.8,29.71,SSW,207,6.0,15.0,92,0.00,,---,0.00,VWS V14.01,2013-01-30 23:23:00,
2013-01-30 18:26:00,67.2,64.8,29.71,South,173,3.0,15.0,92,0.00,,---,0.00,VWS V14.01,2013-01-30 23:26:00,
2013-01-30 18:29:00,67.1,64.7,29.70,SE,142,4.0,15.0,92,0.00,,---,0.00,VWS V14.01,2013-01-30 23:29:00,
2013-01-30 18:30:00,67.1,64.7,29.70,SSE,154,3.0,15.0,92,0.00,,---,0.00,VWS V14.01,2013-01-30 23:30:00,
2013-01-30 18:32:00,67.1,64.7,29.70,SSW,201,4.0,9.0,92,0.00,,---,0.00,VWS V14.01,2013-01-30 23:32:00,
2013-01-30 18:35:00,67.1,64.7,29.70,SSW,200,10.0,10.0,92,0.00,,---,0.00,VWS V14.01,2013-01-30 23:35:00,
2013-01-30 18:38:00,67.1,64.7,29.70,SSW,202,4.0,10.0,92,0.00,,---,0.00,VWS V14.01,2013-01-30 23:38:00,
2013-01-30 18:41:00,67.2,64.8,29.70,SSW,213,7.0,10.0,92,0.00,,---,0.00,VWS V14.01,2013-01-30 23:41:00,
2013-01-30 18:44:00,67.2,64.8,29.69,SW,221,10.0,12.0,92,0.00,,---,0.00,VWS V14.01,2013-01-30 23:44:00,
2013-01-30 18:45:00,67.2,64.8,29.69,SW,224,12.0,12.0,92,0.00,,---,0.00,VWS V14.01,2013-01-30 23:45:00,
2013-01-30 18:47:00,67.2,64.8,29.69,SSE,165,4.0,12.0,92,0.00,,---,0.00,VWS V14.01,2013-01-30 23:47:00,
2013-01-30 18:50:00,67.2,64.8,29.69,SSW,194,3.0,12.0,92,0.00,,---,0.00,VWS V14.01,2013-01-30 23:50:00,
2013-01-30 18:53:00,67.3,64.9,29.69,SSW,203,5.0,19.0,92,0.00,,---,0.00,VWS V14.01,2013-01-30 23:53:00,
2013-01-30 18:56:00,67.3,64.9,29.69,SW,221,5.0,19.0,92,0.00,,---,0.00,VWS V14.01,2013-01-30 23:56:00,
2013-01-30 18:59:00,67.3,64.6,29.69,SE,134,10.0,19.0,91,0.00,,---,0.00,VWS V14.01,2013-01-30 23:59:00,
2013-01-30 19:00:00,67.3,64.6,29.69,SSW,198,5.0,19.0,91,0.00,,---,0.00,VWS V14.01,2013-01-31 00:00:00,
2013-01-30 19:02:00,67.3,64.6,29.69,SSW,195,4.0,14.0,91,0.00,,---,0.00,VWS V14.01,2013-01-31 00:02:00,
2013-01-30 19:05:00,67.4,64.7,29.69,SSE,147,4.0,14.0,91,0.00,,---,0.00,VWS V14.01,2013-01-31 00:05:00,
2013-01-30 19:08:00,67.4,64.7,29.69,SW,223,9.0,14.0,91,0.00,,---,0.00,VWS V14.01,2013-01-31 00:08:00,
2013-01-30 19:11:00,67.4,64.7,29.69,South,184,7.0,14.0,91,0.00,,---,0.00,VWS V14.01,2013-01-31 00:11:00,
2013-01-30 19:14:00,67.5,64.8,29.68,SW,236,6.0,14.0,91,0.00,,---,0.00,VWS V14.01,2013-01-31 00:14:00,
2013-01-30 19:15:00,67.5,64.8,29.68,South,188,5.0,14.0,91,0.00,,---,0.00,VWS V14.01,2013-01-31 00:15:00,
2013-01-30 19:17:00,67.5,64.8,29.68,SSW,211,6.0,10.0,91,0.00,,---,0.00,VWS V14.01,2013-01-31 00:17:00,
2013-01-30 19:20:00,67.6,64.9,29.68,SW,219,2.0,11.0,91,0.00,,---,0.00,VWS V14.01,2013-01-31 00:20:00,
2013-01-30 19:23:00,67.6,64.9,29.68,SSE,166,4.0,12.0,91,0.00,,---,0.00,VWS V14.01,2013-01-31 00:23:00,
2013-01-30 19:26:00,67.6,64.9,29.68,SSW,198,5.0,12.0,91,0.00,,---,0.00,VWS V14.01,2013-01-31 00:26:00,
2013-01-30 19:29:00,67.6,64.9,29.69,SW,224,11.0,12.0,91,0.00,,---,0.00,VWS V14.01,2013-01-31 00:29:00,
2013-01-30 19:30:00,67.6,64.9,29.69,SSW,196,11.0,16.0,91,0.00,,---,0.00,VWS V14.01,2013-01-31 00:30:00,
2013-01-30 19:32:00,67.7,65.0,29.69,WNW,286,10.0,11.0,91,0.00,,---,0.00,VWS V14.01,2013-01-31 00:32:00,
2013-01-30 19:35:00,67.7,65.0,29.69,South,190,7.0,11.0,91,0.00,,---,0.00,VWS V14.01,2013-01-31 00:35:00,
2013-01-30 19:38:00,67.7,65.0,29.69,SW,215,5.0,14.0,91,0.00,,---,0.00,VWS V14.01,2013-01-31 00:38:00,
2013-01-30 19:41:00,67.7,65.0,29.69,SW,226,4.0,14.0,91,0.00,,---,0.00,VWS V14.01,2013-01-31 00:41:00,
2013-01-30 19:44:00,67.7,65.0,29.68,SSW,196,5.0,14.0,91,0.00,,---,0.00,VWS V14.01,2013-01-31 00:44:00,
2013-01-30 19:45:00,67.7,65.0,29.68,South,170,4.0,14.0,91,0.00,,---,0.00,VWS V14.01,2013-01-31 00:45:00,
2013-01-30 19:47:00,67.7,65.0,29.68,South,190,3.0,7.0,91,0.00,,---,0.00,VWS V14.01,2013-01-31 00:47:00,
2013-01-30 19:50:00,67.7,65.0,29.68,SSW,198,6.0,9.0,91,0.00,,---,0.00,VWS V14.01,2013-01-31 00:50:00,
2013-01-30 19:53:00,67.6,64.9,29.68,SSW,202,5.0,14.0,91,0.00,,---,0.00,VWS V14.01,2013-01-31 00:53:00,
2013-01-30 19:56:00,67.6,64.9,29.68,SSW,196,6.0,14.0,91,0.00,,---,0.00,VWS V14.01,2013-01-31 00:56:00,
2013-01-30 19:59:00,67.5,64.8,29.69,SW,221,5.0,14.0,91,0.00,,---,0.00,VWS V14.01,2013-01-31 00:59:00,
2013-01-30 20:00:00,67.5,64.8,29.69,SW,229,4.0,14.0,91,0.00,,---,0.00,VWS V14.01,2013-01-31 01:00:00,
2013-01-30 20:02:00,67.5,64.8,29.69,SW,231,8.0,12.0,91,0.00,,---,0.00,VWS V14.01,2013-01-31 01:02:00,
2013-01-30 20:05:00,67.5,64.8,29.69,SW,220,7.0,12.0,91,0.00,,---,0.00,VWS V14.01,2013-01-31 01:05:00,
2013-01-30 20:12:00,67.5,64.8,29.69,South,190,5.0,12.0,91,0.00,,---,0.00,VWS V14.01,2013-01-31 01:12:00,
2013-01-30 20:15:00,67.5,64.8,29.69,SW,233,7.0,14.0,91,0.00,,---,0.00,VWS V14.01,2013-01-31 01:15:00,
2013-01-30 20:18:00,67.5,64.8,29.69,SSW,200,5.0,12.0,91,0.00,,---,0.00,VWS V14.01,2013-01-31 01:18:00,
2013-01-30 20:19:00,67.5,64.8,29.69,SSW,202,4.0,12.0,91,0.00,,---,0.00,VWS V14.01,2013-01-31 01:19:00,
2013-01-30 20:21:00,67.5,64.8,29.69,SSW,204,4.0,12.0,91,0.00,,---,0.00,VWS V14.01,2013-01-31 01:21:00,
2013-01-30 20:24:00,67.4,64.7,29.69,SW,222,6.0,12.0,91,0.00,,---,0.00,VWS V14.01,2013-01-31 01:24:00,
2013-01-30 20:27:00,67.4,64.7,29.69,SSW,194,6.0,12.0,91,0.00,,---,0.00,VWS V14.01,2013-01-31 01:27:00,
2013-01-30 20:30:00,67.3,64.6,29.69,SE,133,4.0,12.0,91,0.00,,---,0.00,VWS V14.01,2013-01-31 01:30:00,
2013-01-30 20:33:00,67.2,64.5,29.69,South,182,4.0,13.0,91,0.00,,---,0.00,VWS V14.01,2013-01-31 01:33:00,
2013-01-30 20:36:00,67.2,64.5,29.69,South,190,5.0,13.0,91,0.00,,---,0.00,VWS V14.01,2013-01-31 01:36:00,
2013-01-30 20:39:00,67.1,64.4,29.69,SSW,200,7.0,13.0,91,0.00,,---,0.00,VWS V14.01,2013-01-31 01:39:00,
2013-01-30 20:42:00,67.1,64.4,29.69,SSW,199,5.0,13.0,91,0.00,,---,0.00,VWS V14.01,2013-01-31 01:42:00,
2013-01-30 20:45:00,67.1,64.4,29.67,SW,221,11.0,13.0,91,0.00,,---,0.00,VWS V14.01,2013-01-31 01:45:00,
2013-01-30 20:48:00,67.2,64.5,29.67,SW,222,3.0,13.0,91,0.00,,---,0.00,VWS V14.01,2013-01-31 01:48:00,
2013-01-30 20:51:00,67.3,64.6,29.67,SSW,192,5.0,16.0,91,0.00,,---,0.00,VWS V14.01,2013-01-31 01:51:00,
2013-01-30 20:54:00,67.4,64.7,29.67,SSE,153,10.0,16.0,91,0.00,,---,0.00,VWS V14.01,2013-01-31 01:54:00,
2013-01-30 20:57:00,67.5,64.8,29.67,SW,227,8.0,16.0,91,0.00,,---,0.00,VWS V14.01,2013-01-31 01:57:00,
2013-01-30 21:00:00,67.6,64.9,29.67,South,188,3.0,16.0,91,0.00,,---,0.00,VWS V14.01,2013-01-31 02:00:00,
2013-01-30 21:03:00,67.6,64.6,29.67,SW,218,7.0,12.0,90,0.00,,---,0.00,VWS V14.01,2013-01-31 02:03:00,
2013-01-30 21:06:00,67.6,64.9,29.67,SSE,161,4.0,12.0,91,0.00,,---,0.00,VWS V14.01,2013-01-31 02:06:00,
2013-01-30 21:09:00,67.6,64.6,29.67,West,260,3.0,12.0,90,0.00,,---,0.00,VWS V14.01,2013-01-31 02:09:00,
2013-01-30 21:12:00,67.7,64.7,29.67,SSW,193,7.0,13.0,90,0.00,,---,0.00,VWS V14.01,2013-01-31 02:12:00,
2013-01-30 21:15:00,67.7,64.7,29.67,South,179,3.0,13.0,90,0.00,,---,0.00,VWS V14.01,2013-01-31 02:15:00,
2013-01-30 21:18:00,67.6,64.6,29.67,South,169,6.0,12.0,90,0.00,,---,0.00,VWS V14.01,2013-01-31 02:18:00,
2013-01-30 21:21:00,67.6,64.6,29.67,SW,229,5.0,12.0,90,0.00,,---,0.00,VWS V14.01,2013-01-31 02:21:00,
2013-01-30 21:24:00,67.5,64.5,29.67,SSE,161,2.0,12.0,90,0.00,,---,0.00,VWS V14.01,2013-01-31 02:24:00,
2013-01-30 21:27:00,67.5,64.5,29.67,SW,216,7.0,12.0,90,0.00,,---,0.00,VWS V14.01,2013-01-31 02:27:00,
2013-01-30 21:30:00,67.5,64.5,29.65,SW,228,3.0,12.0,90,0.00,,---,0.00,VWS V14.01,2013-01-31 02:30:00,
2013-01-30 21:33:00,67.5,64.5,29.65,SSW,212,6.0,7.0,90,0.00,,---,0.00,VWS V14.01,2013-01-31 02:33:00,
2013-01-30 21:36:00,67.5,64.5,29.65,ESE,122,7.0,16.0,90,0.00,,---,0.00,VWS V14.01,2013-01-31 02:36:00,
2013-01-30 21:39:00,67.5,64.5,29.65,South,188,4.0,16.0,90,0.00,,---,0.00,VWS V14.01,2013-01-31 02:39:00,
2013-01-30 21:42:00,67.6,64.6,29.65,SW,215,5.0,16.0,90,0.00,,---,0.00,VWS V14.01,2013-01-31 02:42:00,
2013-01-30 21:45:00,67.6,64.6,29.64,SSW,199,4.0,16.0,90,0.00,,---,0.00,VWS V14.01,2013-01-31 02:45:00,
2013-01-30 21:48:00,67.6,64.6,29.64,SW,215,5.0,13.0,90,0.00,,---,0.00,VWS V14.01,2013-01-31 02:48:00,
2013-01-30 21:51:00,67.7,64.7,29.64,SW,222,9.0,13.0,90,0.00,,---,0.00,VWS V14.01,2013-01-31 02:51:00,
2013-01-30 21:54:00,67.8,64.8,29.64,SW,225,5.0,13.0,90,0.00,,---,0.00,VWS V14.01,2013-01-31 02:54:00,
2013-01-30 21:57:00,67.9,64.5,29.64,SSW,208,8.0,13.0,89,0.00,,---,0.00,VWS V14.01,2013-01-31 02:57:00,
2013-01-30 22:00:00,67.9,64.5,29.64,SSE,163,5.0,13.0,89,0.00,,---,0.00,VWS V14.01,2013-01-31 03:00:00,
2013-01-30 22:03:00,67.9,64.5,29.64,ESE,121,3.0,13.0,89,0.00,,---,0.00,VWS V14.01,2013-01-31 03:03:00,
2013-01-30 22:06:00,68.0,64.6,29.64,SSW,202,8.0,13.0,89,0.00,,---,0.00,VWS V14.01,2013-01-31 03:06:00,
2013-01-30 22:09:00,68.0,64.6,29.64,SSW,209,11.0,15.0,89,0.00,,---,0.00,VWS V14.01,2013-01-31 03:09:00,
2013-01-30 22:12:00,68.0,64.6,29.64,WSW,237,7.0,15.0,89,0.00,,---,0.00,VWS V14.01,2013-01-31 03:12:00,
2013-01-30 22:15:00,68.0,64.6,29.62,SSW,212,7.0,15.0,89,0.00,,---,0.00,VWS V14.01,2013-01-31 03:15:00,
2013-01-30 22:18:00,68.0,64.6,29.62,SSW,201,4.0,13.0,89,0.00,,---,0.00,VWS V14.01,2013-01-31 03:18:00,
2013-01-30 22:21:00,68.0,64.6,29.62,SSW,192,10.0,13.0,89,0.00,,---,0.00,VWS V14.01,2013-01-31 03:21:00,
2013-01-30 22:24:00,68.1,64.7,29.62,SW,221,9.0,14.0,89,0.00,,---,0.00,VWS V14.01,2013-01-31 03:24:00,
2013-01-30 22:27:00,68.2,64.8,29.62,SW,217,6.0,14.0,89,0.00,,---,0.00,VWS V14.01,2013-01-31 03:27:00,
2013-01-30 22:30:00,68.3,64.9,29.62,SW,217,5.0,14.0,89,0.00,,---,0.00,VWS V14.01,2013-01-31 03:30:00,
2013-01-30 22:33:00,68.3,64.9,29.62,South,178,6.0,13.0,89,0.00,,---,0.00,VWS V14.01,2013-01-31 03:33:00,
2013-01-30 22:36:00,68.3,64.9,29.62,South,187,9.0,13.0,89,0.00,,---,0.00,VWS V14.01,2013-01-31 03:36:00,
2013-01-30 22:39:00,68.3,64.6,29.62,South,179,11.0,13.0,88,0.00,,---,0.00,VWS V14.01,2013-01-31 03:39:00,
2013-01-30 22:42:00,68.2,64.5,29.62,SSW,212,13.0,13.0,88,0.00,,---,0.00,VWS V14.01,2013-01-31 03:42:00,
2013-01-30 22:45:00,68.2,64.5,29.61,SW,224,8.0,13.0,88,0.00,,---,0.00,VWS V14.01,2013-01-31 03:45:00,
2013-01-30 22:48:00,68.2,64.5,29.61,WSW,247,5.0,14.0,88,0.00,,---,0.00,VWS V14.01,2013-01-31 03:48:00,
2013-01-30 22:51:00,68.2,64.5,29.61,SW,221,14.0,14.0,88,0.00,,---,0.00,VWS V14.01,2013-01-31 03:51:00,
2013-01-30 22:54:00,68.2,64.5,29.61,SW,218,7.0,16.0,88,0.00,,---,0.00,VWS V14.01,2013-01-31 03:54:00,
2013-01-30 22:57:00,68.2,64.5,29.61,SSW,192,7.0,16.0,88,0.00,,---,0.00,VWS V14.01,2013-01-31 03:57:00,
2013-01-30 23:00:00,68.1,64.4,29.61,South,178,9.0,16.0,88,0.00,,---,0.00,VWS V14.01,2013-01-31 04:00:00,
2013-01-30 23:03:00,68.1,64.4,29.61,SSW,212,5.0,12.0,88,0.00,,---,0.00,VWS V14.01,2013-01-31 04:03:00,
2013-01-30 23:06:00,68.2,64.5,29.61,SSW,199,4.0,12.0,88,0.00,,---,0.00,VWS V14.01,2013-01-31 04:06:00,
2013-01-30 23:09:00,68.2,64.8,29.61,SW,232,4.0,12.0,89,0.00,,---,0.00,VWS V14.01,2013-01-31 04:09:00,
2013-01-30 23:12:00,68.2,64.8,29.61,SW,221,9.0,18.0,89,0.00,,---,0.00,VWS V14.01,2013-01-31 04:12:00,
2013-01-30 23:15:00,68.3,64.9,29.62,SW,223,4.0,18.0,89,0.00,,---,0.00,VWS V14.01,2013-01-31 04:15:00,
2013-01-30 23:18:00,68.2,65.2,29.62,SW,236,2.0,7.0,90,0.02,,---,0.02,VWS V14.01,2013-01-31 04:18:00,
2013-01-30 23:21:00,68.1,65.4,29.62,SW,217,5.0,7.0,91,0.05,,---,0.05,VWS V14.01,2013-01-31 04:21:00,
2013-01-30 23:24:00,67.9,65.2,29.62,WNW,283,3.0,7.0,91,0.08,,---,0.08,VWS V14.01,2013-01-31 04:24:00,
2013-01-30 23:27:00,67.7,65.3,29.62,NW,309,4.0,10.0,92,0.10,,---,0.10,VWS V14.01,2013-01-31 04:27:00,
2013-01-30 23:30:00,67.4,64.7,29.67,WNW,295,2.0,10.0,91,0.10,,---,0.10,VWS V14.01,2013-01-31 04:30:00,
2013-01-30 23:33:00,66.9,64.2,29.67,WNW,294,3.0,10.0,91,0.11,,---,0.11,VWS V14.01,2013-01-31 04:33:00,
2013-01-30 23:36:00,66.1,62.8,29.67,North,355,6.0,13.0,89,0.11,,---,0.11,VWS V14.01,2013-01-31 04:36:00,
2013-01-30 23:45:00,63.9,60.6,29.68,West,275,2.0,14.0,89,0.11,,---,0.11,VWS V14.01,2013-01-31 04:45:00,
2013-01-30 23:48:00,63.2,59.9,29.68,WNW,284,1.0,11.0,89,0.11,,---,0.11,VWS V14.01,2013-01-31 04:48:00,
2013-01-30 23:50:00,65.0,61.4,29.67,NW,306,5.0,14.0,88,0.11,,---,0.11,VWS V14.01,2013-01-31 04:50:00,
2013-01-30 23:51:00,62.7,59.4,29.68,SW,233,4.0,11.0,89,0.11,,---,0.11,VWS V14.01,2013-01-31 04:51:00,
2013-01-30 23:55:00,62.2,58.9,29.68,West,278,3.0,11.0,89,0.12,,---,0.12,VWS V14.01,2013-01-31 04:55:00,
2013-01-30 23:57:00,61.9,58.9,29.68,ESE,121,1.0,11.0,90,0.12,,---,0.12,VWS V14.01,2013-01-31 04:57:00,